TimeCST,TemperatureF,Dew PointF,Humidity,Sea Level PressureIn,VisibilityMPH,Wind Direction,Wind SpeedMPH,Gust SpeedMPH,PrecipitationIn,Events,Conditions,WindDirDegrees,DateUTC
12:15 AM,41.0,30.2,65,29.74,10.0,North,5.8,-,N/A,,Clear,360,2014-01-13 06:15:00
12:35 AM,39.2,30.2,70,29.74,10.0,North,6.9,-,N/A,,Clear,350,2014-01-13 06:35:00
12:55 AM,39.2,30.2,70,29.75,10.0,WNW,3.5,-,N/A,,Clear,290,2014-01-13 06:55:00
1:15 AM,39.2,30.2,70,29.76,10.0,WNW,5.8,-,N/A,,Clear,300,2014-01-13 07:15:00
1:35 AM,37.4,28.4,70,29.77,10.0,West,5.8,-,N/A,,Clear,260,2014-01-13 07:35:00
1:55 AM,37.4,28.4,70,29.79,10.0,West,10.4,-,N/A,,Clear,270,2014-01-13 07:55:00
2:15 AM,37.4,30.2,75,29.81,10.0,WNW,6.9,-,N/A,,Clear,290,2014-01-13 08:15:00
2:35 AM,37.4,28.4,70,29.81,10.0,West,6.9,-,N/A,,Clear,280,2014-01-13 08:35:00
2:55 AM,35.6,26.6,70,29.81,10.0,WNW,11.5,-,N/A,,Clear,290,2014-01-13 08:55:00
3:15 AM,35.6,24.8,65,29.81,10.0,WNW,11.5,-,N/A,,Clear,290,2014-01-13 09:15:00
3:35 AM,35.6,24.8,65,29.83,10.0,WNW,13.8,-,N/A,,Clear,300,2014-01-13 09:35:00
3:55 AM,35.6,23.0,60,29.83,10.0,WNW,12.7,-,N/A,,Clear,300,2014-01-13 09:55:00
4:15 AM,33.8,23.0,65,29.84,10.0,NW,13.8,-,N/A,,Clear,310,2014-01-13 10:15:00
4:35 AM,33.8,24.8,70,29.85,10.0,NNW,10.4,-,N/A,,Clear,330,2014-01-13 10:35:00
4:55 AM,33.8,24.8,70,29.85,10.0,NNW,10.4,-,N/A,,Clear,330,2014-01-13 10:55:00
5:15 AM,33.8,24.8,70,29.86,10.0,NNW,10.4,-,N/A,,Clear,330,2014-01-13 11:15:00
5:35 AM,33.8,24.8,70,29.87,10.0,NNW,11.5,-,N/A,,Clear,330,2014-01-13 11:35:00
5:55 AM,33.8,24.8,70,29.88,10.0,NW,11.5,-,N/A,,Clear,320,2014-01-13 11:55:00
6:15 AM,33.8,24.8,70,29.88,10.0,NW,10.4,-,N/A,,Clear,310,2014-01-13 12:15:00
6:35 AM,33.8,24.8,70,29.89,10.0,NW,10.4,-,N/A,,Clear,310,2014-01-13 12:35:00
6:55 AM,33.8,24.8,70,29.90,10.0,NW,10.4,-,N/A,,Clear,310,2014-01-13 12:55:00
7:15 AM,33.8,24.8,70,29.91,10.0,NW,10.4,-,N/A,,Clear,310,2014-01-13 13:15:00
7:35 AM,32.0,24.8,75,29.92,10.0,WNW,10.4,-,N/A,,Clear,300,2014-01-13 13:35:00
7:55 AM,32.0,24.8,75,29.92,10.0,NW,10.4,-,N/A,,Clear,310,2014-01-13 13:55:00
8:15 AM,32.0,24.8,75,29.93,10.0,NW,11.5,-,N/A,,Clear,310,2014-01-13 14:15:00
8:35 AM,33.8,24.8,70,29.94,10.0,NW,11.5,-,N/A,,Clear,310,2014-01-13 14:35:00
8:55 AM,33.8,24.8,70,29.95,10.0,NW,10.4,-,N/A,,Clear,310,2014-01-13 14:55:00
9:15 AM,35.6,24.8,65,29.95,10.0,NW,9.2,-,N/A,,Clear,310,2014-01-13 15:15:00
9:35 AM,37.4,24.8,60,29.96,10.0,NW,11.5,-,N/A,,Clear,320,2014-01-13 15:35:00
9:55 AM,37.4,26.6,65,29.97,10.0,NW,13.8,-,N/A,,Clear,320,2014-01-13 15:55:00
10:15 AM,39.2,26.6,61,29.97,10.0,NW,12.7,-,N/A,,Clear,320,2014-01-13 16:15:00
10:35 AM,41.0,26.6,57,29.98,10.0,NW,13.8,-,N/A,,Clear,310,2014-01-13 16:35:00
10:55 AM,42.8,26.6,53,29.98,10.0,NW,13.8,-,N/A,,Clear,310,2014-01-13 16:55:00
11:15 AM,42.8,26.6,53,29.99,10.0,NNW,13.8,-,N/A,,Clear,330,2014-01-13 17:15:00
11:35 AM,44.6,26.6,49,29.98,10.0,WNW,11.5,-,N/A,,Clear,300,2014-01-13 17:35:00
11:55 AM,44.6,26.6,49,29.97,10.0,NW,12.7,-,N/A,,Clear,320,2014-01-13 17:55:00
12:15 PM,46.4,28.4,50,29.96,10.0,NW,13.8,-,N/A,,Clear,310,2014-01-13 18:15:00
12:35 PM,46.4,28.4,50,29.95,10.0,WNW,11.5,-,N/A,,Clear,300,2014-01-13 18:35:00
12:55 PM,48.2,26.6,43,29.94,10.0,WNW,11.5,-,N/A,,Clear,300,2014-01-13 18:55:00
1:15 PM,48.2,28.4,46,29.93,10.0,WNW,11.5,-,N/A,,Clear,300,2014-01-13 19:15:00
1:35 PM,48.2,26.6,43,29.92,10.0,WNW,11.5,-,N/A,,Clear,290,2014-01-13 19:35:00
1:55 PM,48.2,26.6,43,29.91,10.0,West,15.0,18.4,N/A,,Clear,270,2014-01-13 19:55:00
2:15 PM,50.0,26.6,40,29.91,10.0,West,10.4,16.1,N/A,,Clear,270,2014-01-13 20:15:00
2:35 PM,50.0,26.6,40,29.90,10.0,WSW,13.8,19.6,N/A,,Clear,250,2014-01-13 20:35:00
2:55 PM,50.0,26.6,40,29.91,10.0,West,13.8,18.4,N/A,,Clear,270,2014-01-13 20:55:00
3:15 PM,51.8,24.8,35,29.91,10.0,West,13.8,20.7,N/A,,Clear,260,2014-01-13 21:15:00
3:35 PM,50.0,24.8,37,29.90,10.0,WSW,12.7,-,N/A,,Clear,250,2014-01-13 21:35:00
3:55 PM,51.8,23.0,33,29.90,10.0,WSW,12.7,-,N/A,,Clear,250,2014-01-13 21:55:00
4:15 PM,51.8,21.2,30,29.90,10.0,WSW,15.0,-,N/A,,Clear,250,2014-01-13 22:15:00
4:35 PM,51.8,21.2,30,29.90,10.0,WSW,11.5,-,N/A,,Clear,250,2014-01-13 22:35:00
4:55 PM,50.0,21.2,32,29.90,10.0,WSW,10.4,-,N/A,,Clear,250,2014-01-13 22:55:00
5:15 PM,48.2,21.2,34,29.89,10.0,WSW,9.2,-,N/A,,Clear,240,2014-01-13 23:15:00
5:35 PM,46.4,21.2,37,29.88,10.0,SW,8.1,-,N/A,,Clear,230,2014-01-13 23:35:00
5:55 PM,42.8,21.2,42,29.88,10.0,SW,8.1,-,N/A,,Clear,230,2014-01-13 23:55:00
6:15 PM,42.8,21.2,42,29.88,10.0,WSW,8.1,-,N/A,,Clear,240,2014-01-14 00:15:00
6:35 PM,42.8,21.2,42,29.88,10.0,SW,8.1,-,N/A,,Clear,220,2014-01-14 00:35:00
6:55 PM,41.0,21.2,45,29.87,10.0,SW,8.1,-,N/A,,Clear,220,2014-01-14 00:55:00
7:15 PM,41.0,21.2,45,29.86,10.0,SW,8.1,-,N/A,,Clear,220,2014-01-14 01:15:00
7:35 PM,39.2,21.2,49,29.86,10.0,SW,8.1,-,N/A,,Clear,220,2014-01-14 01:35:00
7:55 PM,39.2,21.2,49,29.86,10.0,SW,8.1,-,N/A,,Clear,220,2014-01-14 01:55:00
8:15 PM,39.2,21.2,49,29.86,10.0,WSW,8.1,-,N/A,,Clear,240,2014-01-14 02:15:00
8:35 PM,39.2,21.2,49,29.86,10.0,SW,8.1,-,N/A,,Clear,230,2014-01-14 02:35:00
8:55 PM,37.4,19.4,48,29.86,10.0,SW,9.2,-,N/A,,Clear,220,2014-01-14 02:55:00
9:15 PM,37.4,19.4,48,29.87,10.0,SW,6.9,-,N/A,,Clear,220,2014-01-14 03:15:00
9:35 PM,35.6,21.2,56,29.86,10.0,SW,9.2,-,N/A,,Clear,230,2014-01-14 03:35:00
9:55 PM,35.6,21.2,56,29.86,10.0,SW,8.1,-,N/A,,Clear,220,2014-01-14 03:55:00
10:15 PM,35.6,21.2,56,29.86,10.0,SW,9.2,-,N/A,,Clear,220,2014-01-14 04:15:00
10:35 PM,35.6,21.2,56,29.86,10.0,SW,9.2,-,N/A,,Clear,220,2014-01-14 04:35:00
10:55 PM,35.6,21.2,56,29.86,10.0,SW,9.2,-,N/A,,Clear,220,2014-01-14 04:55:00
11:15 PM,35.6,21.2,56,29.86,10.0,WSW,9.2,-,N/A,,Clear,240,2014-01-14 05:15:00
11:35 PM,35.6,19.4,52,29.86,10.0,WSW,8.1,-,N/A,,Clear,240,2014-01-14 05:35:00
11:55 PM,35.6,21.2,56,29.86,10.0,WSW,8.1,-,N/A,,Clear,240,2014-01-14 05:55:00